[[{"header":{"parameterUnit":"m.s-1","parameterCategory":1,"la1":30.2991,"la2":30.254,"lo1":-89.0895,"lo2":-89.0444,"dy":0.0017,"dx":0.0017,"nx":28,"ny":28,"refTime":"2026-01-05T09:00:00:Z","depth":0,"parameterNumber":2,"parameterNumberName":"U-component_of_WINDS"},"data":[0,0,0,0,0,0,0,0,0,0,0,0,0,0,0,0,0,0,0,0,0,0,0,0,0,0,0,0,0,0,0,0,0,0,0,0,0,0,0,0,0,0,0,0,0,0,0,0,0,0,0,0,0,0,0,0,0,0,-1.9306,-1.9306,0,-1.9317,-1.9317,-1.9318,-1.924,-1.9238,-1.9236,-1.9234,-1.925,-1.9253,-1.9255,0,0,0,0,0,0,0,0,0,0,0,0,0,-1.9224,-1.9225,-1.9306,-1.9306,-1.9306,-1.9317,-1.9317,-1.9318,-1.9241,-1.9238,-1.9235,-1.9233,-1.925,-1.9253,-1.9256,0,0,0,0,0,0,0,0,0,0,0,0,0,-1.925,-1.9226,-1.9306,-1.9269,-1.9266,-1.9317,-1.9317,-1.9318,-1.9241,-1.9238,-1.9235,-1.9232,-1.9249,-1.9252,-1.9256,-1.9345,0,0,-1.9267,-1.9269,0,0,0,0,0,0,0,0,-1.9248,-1.9253,-1.9274,-1.9272,-1.9268,-1.9274,-1.9294,-1.9327,-1.9242,-1.9251,-1.9234,-1.923,-1.9261,-1.9264,-1.9273,-1.9346,-1.9346,-1.9268,-1.927,-1.9272,-1.9273,0,0,0,0,0,0,0,-1.9247,-1.9252,-1.9311,-1.9275,-1.9271,-1.9254,-1.9254,-1.93,-1.9275,-1.925,-1.9244,-1.9246,-1.9259,-1.927,-1.9273,-1.9347,-1.9268,-1.9271,-1.9273,-1.9275,-1.9495,-1.9498,0,0,0,0,0,0,-1.9249,-1.9251,-1.931,-1.9311,-1.925,-1.9258,-1.9258,-1.9276,-1.9274,-1.927,-1.9249,-1.9243,-1.9265,-1.9269,-1.9273,-1.9379,-1.9272,-1.9275,-1.9277,-1.9491,-1.9496,-1.9499,0,0,0,0,0,0,-1.9248,-1.9255,-1.931,-1.9279,-1.9285,-1.9263,-1.9283,-1.9277,-1.9288,-1.9273,-1.9269,-1.9264,-1.9263,-1.9268,-1.9328,-1.9378,-1.9277,-1.928,-1.9487,-1.9493,-1.9497,-1.9589,0,0,0,0,0,0,-1.9246,-1.9255,-1.9287,-1.9281,-1.9287,-1.9363,-1.9286,-1.928,-1.9294,-1.9286,-1.9286,-1.9283,-1.926,-1.9323,-1.9331,-1.9381,-1.9283,-1.9482,-1.9489,-1.9496,-1.9581,-1.9597,-1.961,0,0,0,0,0,-1.9243,-1.9313,-1.9289,-1.9297,-1.9326,-1.9365,-1.9369,-1.934,-1.9298,-1.9332,-1.9322,-1.9283,-1.9371,-1.9329,-1.9339,-1.939,-1.9479,-1.9487,-1.9495,-1.9575,-1.9594,-1.961,0,0,0,0,0,0,-1.9327,-1.9311,-1.9285,-1.9354,-1.9362,-1.9352,-1.9393,-1.9361,-1.9381,-1.9373,-1.9337,-1.9338,-1.9404,-1.9403,-1.9357,-1.9477,-1.9418,-1.9428,-1.9476,-1.9493,-1.9507,-1.9507,-1.9286,0,0,0,0,0,-1.9354,-1.9385,-1.937,-1.9434,-1.9438,-1.9415,-1.9431,-1.9408,-1.9415,-1.9418,-1.9413,-1.9423,-1.9452,-1.9473,-1.9499,-1.9581,-1.9581,-1.9621,-1.9636,-1.9648,-1.9657,-1.9703,-1.9721,-1.9526,-1.9526,-1.9526,0,0,-1.9409,-1.9405,-1.9427,-1.945,-1.9453,-1.9489,-1.9418,-1.9458,-1.9485,-1.9424,-1.948,-1.9477,-1.9486,-1.9558,-1.9589,-1.9559,-1.9711,-1.9658,-1.9667,-1.9671,-1.9713,-1.9731,-1.9748,-1.9532,-1.9531,-1.953,0,0,-1.9529,-1.9527,-1.958,-1.9585,-1.959,-1.9574,-1.9587,-1.9583,-1.9578,-1.9633,-1.9589,-1.9621,-1.9673,-1.9681,-1.9692,-1.9817,-1.9782,-1.9826,-1.9902,-1.9946,-1.9962,-1.9975,-2.0021,-2.0038,-1.9836,-1.9836,-1.9836,0,-1.9597,-1.9647,-1.9612,-1.9656,-1.9668,-1.9614,-1.9669,-1.9675,-1.969,-1.9701,-1.9666,-1.9731,-1.9733,-1.9806,-1.9837,-1.9847,-1.9863,-1.9826,-1.9962,-1.9975,-1.9987,-2.0031,-2.0048,-1.9841,-1.9841,-1.984,-1.984,0,-1.9732,-1.9768,-1.981,-1.9824,-1.9841,-1.989,-1.9865,-1.9888,-1.9864,-1.9852,-1.9911,-1.9911,-1.9937,-1.9953,-1.993,-2.0025,-2.0006,-1.9968,-1.9907,-2.0012,-2.0052,-2.0068,-1.9849,-1.9847,-1.9846,-1.9844,0,0,-1.9904,-1.9899,-1.9915,-1.9922,-1.9924,-1.9952,-1.9999,-2.0023,-2.0044,-2.0056,-2.0097,-2.0142,-2.0107,-2.012,-2.0097,-2.0137,-2.0237,-2.0093,-2.0093,-2.0121,-2.0344,-2.0373,-2.0393,-2.0214,-2.0217,-2.022,-2.0343,0,-2.0022,-2.0101,-2.0072,-2.0154,-2.0187,-2.0137,-2.0179,-2.0186,-2.0178,-2.0206,-2.0197,-2.0231,-2.0181,-2.0188,-2.0225,-2.0217,-2.0282,-2.0208,-2.0254,-2.0256,-2.0254,-2.0414,-2.0445,-2.0562,-2.0359,-2.0361,-2.0363,0,-2.0169,-2.0186,-2.0271,-2.0269,-2.0282,-2.032,-2.0341,-2.0368,-2.0376,-2.0367,-2.0382,-2.0352,-2.0401,-2.034,-2.0409,-2.0359,-2.0377,-2.0376,-2.038,-2.0384,-2.0317,-2.0424,-2.0598,-2.0616,-2.0388,-2.0386,-2.0384,0,-2.0288,-2.0332,-2.0389,-2.0396,-2.0394,-2.0423,-2.0424,-2.0428,-2.0445,-2.0464,-2.0476,-2.0501,-2.0515,-2.0537,-2.0515,-2.0473,-2.0588,-2.0525,-2.0584,-2.0584,-2.0611,-2.0609,-2.0792,-2.062,-2.062,-2.062,-2.0619,0,-2.0423,-2.0477,-2.0443,-2.0478,-2.0538,-2.0506,-2.0567,-2.0563,-2.0568,-2.0603,-2.0561,-2.0596,-2.0565,-2.0597,-2.0581,-2.0641,-2.0648,-2.0644,-2.0639,-2.0648,-2.0649,-2.0659,-2.0651,-2.0624,-2.0623,-2.0622,-2.0622,0,-2.0566,-2.0545,-2.0604,-2.0597,-2.0597,-2.0642,-2.0638,-2.0671,-2.066,-2.0705,-2.0714,-2.0697,-2.0733,-2.0713,-2.0751,-2.074,-2.0819,-2.0802,-2.0816,-2.0812,-2.0872,-2.0868,-2.1069,-2.1094,-2.0906,-2.0907,-2.0909,0,-2.0653,-2.0694,-2.0692,-2.0712,-2.0715,-2.0748,-2.0765,-2.0735,-2.0755,-2.0769,-2.0801,-2.0833,-2.0857,-2.0918,-2.091,-2.094,-2.0925,-2.0993,-2.0929,-2.0937,-2.0927,-2.0926,-2.0931,-2.1006,-2.1009,-2.101,-2.1012,0,-2.0812,-2.08,-2.0825,-2.0848,-2.0869,-2.0886,-2.0899,-2.0918,-2.0889,-2.0914,-2.095,-2.0968,-2.1007,-2.104,-2.1065,-2.1069,-2.1037,-2.1032,-2.1047,-2.1058,-2.1064,-2.1063,-2.0852,-2.1028,-2.1026,-2.1025,-2.1024,-2.1023,-2.0931,-2.0965,-2.0969,-2.1,-2.1007,-2.102,-2.1052,-2.1044,-2.1073,-2.1101,-2.1082,-2.1125,-2.1134,-2.1165,-2.1172,-2.1207,-2.118,-2.1202,-2.1208,-2.1214,-2.1223,-2.1058,-2.1212,-2.1211,-2.1211,-2.121,-2.121,0,-2.1088,-2.1089,-2.1117,-2.1136,-2.1161,-2.1127,-2.114,-2.1164,-2.1201,-2.1212,-2.1236,-2.1279,-2.1311,-2.1307,-2.1337,-2.1366,-2.1352,-2.1375,-2.1373,-2.1375,-2.1245,-2.1229,-2.1386,-2.1386,-2.1386,-2.1386,-2.1386,-2.1385,-2.1173,-2.123,-2.1219,-2.1279,-2.128,-2.132,-2.1331,-2.1345,-2.1353,-2.1401,-2.1428,-2.1424,-2.1429,-2.146,-2.1489,-2.1487,-2.1501,-2.153,-2.1523,-2.1401,-2.1384,-2.1367,-2.1352,-2.1533,-2.1533,-2.165,-2.1651,-2.1652]},{"header":{"parameterUnit":"m.s-1","parameterCategory":1,"la1":30.2991,"la2":30.254,"lo1":-89.0895,"lo2":-89.0444,"dy":0.0017,"dx":0.0017,"nx":28,"ny":28,"refTime":"2026-01-05T09:00:00:Z","depth":0,"parameterNumber":3,"parameterNumberName":"V-component_of_WINDS"},"data":[0,0,0,0,0,0,0,0,0,0,0,0,0,0,0,0,0,0,0,0,0,0,0,0,0,0,0,0,0,0,0,0,0,0,0,0,0,0,0,0,0,0,0,0,0,0,0,0,0,0,0,0,0,0,0,0,0,0,-1.432,-1.432,0,-1.431,-1.431,-1.4309,-1.4272,-1.4272,-1.4271,-1.427,-1.4258,-1.4258,-1.4259,0,0,0,0,0,0,0,0,0,0,0,0,0,-1.4306,-1.4306,-1.432,-1.432,-1.432,-1.431,-1.4309,-1.4309,-1.4273,-1.4272,-1.4271,-1.427,-1.4258,-1.4258,-1.4259,0,0,0,0,0,0,0,0,0,0,0,0,0,-1.4305,-1.4307,-1.432,-1.43,-1.4299,-1.431,-1.4309,-1.4309,-1.4273,-1.4272,-1.427,-1.4269,-1.4257,-1.4258,-1.4259,-1.4288,0,0,-1.4261,-1.4261,0,0,0,0,0,0,0,0,-1.4305,-1.4306,-1.4303,-1.4302,-1.43,-1.4291,-1.43,-1.4302,-1.4273,-1.4283,-1.427,-1.4268,-1.427,-1.4269,-1.427,-1.4287,-1.4287,-1.4261,-1.4261,-1.4262,-1.4262,0,0,0,0,0,0,0,-1.4306,-1.4306,-1.4316,-1.4303,-1.4301,-1.4291,-1.429,-1.43,-1.4283,-1.4282,-1.4279,-1.4278,-1.4269,-1.427,-1.427,-1.4287,-1.4261,-1.4262,-1.4262,-1.4262,-1.4325,-1.4326,0,0,0,0,0,0,-1.4309,-1.4306,-1.4316,-1.4316,-1.43,-1.4292,-1.4291,-1.4295,-1.4283,-1.428,-1.4279,-1.4277,-1.4269,-1.4269,-1.4269,-1.4301,-1.4262,-1.4262,-1.4263,-1.4323,-1.4325,-1.4326,0,0,0,0,0,0,-1.4309,-1.431,-1.4317,-1.431,-1.431,-1.4294,-1.4299,-1.4296,-1.4297,-1.4281,-1.4278,-1.4284,-1.4268,-1.4268,-1.4283,-1.43,-1.4263,-1.4263,-1.4322,-1.4324,-1.4326,-1.4365,0,0,0,0,0,0,-1.4308,-1.431,-1.4322,-1.4311,-1.4311,-1.4332,-1.43,-1.4296,-1.4298,-1.4294,-1.4284,-1.4282,-1.4267,-1.4282,-1.4284,-1.43,-1.4264,-1.432,-1.4323,-1.4325,-1.4362,-1.4368,-1.4373,0,0,0,0,0,-1.4308,-1.4334,-1.4323,-1.4324,-1.4325,-1.4333,-1.4333,-1.4316,-1.43,-1.431,-1.43,-1.4282,-1.4298,-1.4284,-1.4285,-1.4302,-1.4319,-1.4322,-1.4325,-1.436,-1.4367,-1.4373,0,0,0,0,0,0,-1.4347,-1.4332,-1.432,-1.4343,-1.4339,-1.4327,-1.434,-1.4325,-1.4326,-1.4322,-1.4301,-1.4299,-1.4316,-1.4311,-1.4296,-1.4328,-1.4305,-1.4308,-1.4332,-1.4338,-1.4344,-1.4344,-1.4264,0,0,0,0,0,-1.4359,-1.4367,-1.4353,-1.4375,-1.4374,-1.4357,-1.436,-1.4347,-1.4343,-1.4341,-1.4332,-1.4328,-1.4332,-1.4335,-1.4338,-1.4361,-1.4358,-1.4373,-1.4379,-1.4383,-1.4386,-1.4396,-1.4403,-1.4335,-1.4335,-1.4335,0,0,-1.4382,-1.4375,-1.4382,-1.4382,-1.4378,-1.4386,-1.4356,-1.4367,-1.4372,-1.4342,-1.4356,-1.4349,-1.4343,-1.4362,-1.437,-1.4358,-1.4404,-1.4387,-1.4391,-1.4391,-1.44,-1.4406,-1.4412,-1.4337,-1.4337,-1.4337,0,0,-1.4429,-1.4425,-1.4442,-1.4438,-1.4432,-1.4421,-1.4425,-1.4414,-1.4408,-1.4421,-1.4399,-1.4404,-1.4412,-1.4408,-1.4407,-1.445,-1.4432,-1.4451,-1.448,-1.449,-1.4495,-1.4499,-1.4513,-1.4519,-1.4454,-1.4454,-1.4454,0,-1.4459,-1.4471,-1.4452,-1.4463,-1.4464,-1.4437,-1.4453,-1.445,-1.4445,-1.4445,-1.4432,-1.4439,-1.4434,-1.445,-1.4461,-1.4461,-1.4464,-1.4452,-1.4496,-1.45,-1.4504,-1.4517,-1.4523,-1.4456,-1.4456,-1.4456,-1.4456,0,-1.4507,-1.4515,-1.453,-1.4525,-1.4527,-1.4541,-1.4523,-1.4527,-1.4513,-1.4503,-1.4515,-1.4507,-1.4506,-1.451,-1.4497,-1.4524,-1.4516,-1.45,-1.4476,-1.4513,-1.4525,-1.453,-1.446,-1.4459,-1.4458,-1.4458,0,0,-1.458,-1.4564,-1.4569,-1.4566,-1.4556,-1.4562,-1.4573,-1.4573,-1.4576,-1.4573,-1.4581,-1.4587,-1.4571,-1.457,-1.4556,-1.4565,-1.4597,-1.4547,-1.4546,-1.4555,-1.4624,-1.4636,-1.4643,-1.4585,-1.4586,-1.4587,-1.4624,0,-1.4623,-1.4642,-1.4625,-1.4647,-1.4653,-1.4627,-1.4637,-1.4631,-1.4621,-1.4624,-1.4613,-1.4617,-1.4597,-1.4595,-1.4603,-1.4592,-1.4611,-1.4589,-1.4591,-1.4592,-1.4593,-1.4649,-1.4662,-1.4698,-1.4629,-1.463,-1.463,0,-1.4677,-1.4676,-1.4698,-1.4685,-1.4687,-1.4697,-1.4694,-1.4698,-1.469,-1.4682,-1.468,-1.4662,-1.4671,-1.4648,-1.4659,-1.4644,-1.4644,-1.4638,-1.4639,-1.4638,-1.4613,-1.4649,-1.4709,-1.4714,-1.4638,-1.4637,-1.4637,0,-1.4726,-1.473,-1.4743,-1.4742,-1.4727,-1.4734,-1.4728,-1.472,-1.472,-1.4717,-1.4717,-1.4715,-1.4714,-1.4712,-1.4695,-1.468,-1.4707,-1.4683,-1.4699,-1.47,-1.4706,-1.4706,-1.4767,-1.4708,-1.4708,-1.4707,-1.4707,0,-1.4776,-1.479,-1.4765,-1.4773,-1.4788,-1.4767,-1.4782,-1.4773,-1.4766,-1.4771,-1.4748,-1.4753,-1.473,-1.4732,-1.4718,-1.4728,-1.4728,-1.4721,-1.4717,-1.4722,-1.4723,-1.4722,-1.4718,-1.4709,-1.4709,-1.4708,-1.4708,0,-1.4833,-1.4817,-1.4829,-1.4814,-1.4811,-1.4822,-1.4809,-1.4815,-1.4803,-1.481,-1.481,-1.4791,-1.4792,-1.4774,-1.4772,-1.4763,-1.4779,-1.4771,-1.4781,-1.4778,-1.4796,-1.4794,-1.4857,-1.4863,-1.4801,-1.4802,-1.4802,0,-1.4866,-1.4876,-1.4862,-1.4863,-1.4859,-1.4862,-1.4862,-1.4841,-1.4842,-1.4833,-1.484,-1.4839,-1.4837,-1.484,-1.4826,-1.4823,-1.4814,-1.4837,-1.4814,-1.4819,-1.4813,-1.4812,-1.4813,-1.4841,-1.4842,-1.4843,-1.4843,0,-1.4925,-1.4916,-1.4917,-1.4914,-1.4915,-1.4912,-1.4907,-1.491,-1.4887,-1.4888,-1.4889,-1.4888,-1.4885,-1.4884,-1.4878,-1.4871,-1.4853,-1.485,-1.4854,-1.486,-1.4865,-1.4861,-1.4793,-1.4849,-1.4849,-1.4848,-1.4848,-1.4848,-1.497,-1.4977,-1.4968,-1.4969,-1.4963,-1.4959,-1.4963,-1.4952,-1.4952,-1.4948,-1.4936,-1.4938,-1.4928,-1.4919,-1.4913,-1.4914,-1.4903,-1.4908,-1.491,-1.4911,-1.4914,-1.4865,-1.4913,-1.4913,-1.4913,-1.4912,-1.4912,0,-1.5027,-1.5019,-1.502,-1.5014,-1.5015,-1.4998,-1.4991,-1.4992,-1.4995,-1.4987,-1.4986,-1.4986,-1.4984,-1.4969,-1.4965,-1.4969,-1.496,-1.4968,-1.4967,-1.4966,-1.4925,-1.4921,-1.4975,-1.4975,-1.4975,-1.4975,-1.4975,-1.4975,-1.5057,-1.5067,-1.5057,-1.5064,-1.5056,-1.5058,-1.5056,-1.5051,-1.5045,-1.5046,-1.5044,-1.5034,-1.5023,-1.5018,-1.5015,-1.501,-1.501,-1.5021,-1.5013,-1.4975,-1.4969,-1.4963,-1.496,-1.5021,-1.5021,-1.5054,-1.5054,-1.5054]}]]